Location: Krasnoyarskiy
(51.1133°N, 71.6497°E)
Time: 09:13:01
(UTC+00:00)

BlueWalker 3 - Visible Passes

Search period start: 26 March 2023 00:00
Search period end: 05 April 2023 00:00
Orbit: 497 x 515 km, 53.2° (Epoch: 25 March)

Date Brightness Start Highest point End Pass type
(mag) Time Alt. Az. Time Alt. Az. Time Alt. Az.
27 Mar 3.5 15:44:22 10° SSW 15:46:11 23° SSW 15:46:11 23° SSW visible
28 Mar 2.4 15:24:39 10° SW 15:28:16 38° SE 15:28:22 38° SE visible
28 Mar 4.7 17:02:48 10° W 17:03:10 12° W 17:03:10 12° W visible
29 Mar 2.4 15:04:55 10° SW 15:08:34 39° SSE 15:10:17 25° E visible
29 Mar 3.7 16:43:07 10° W 16:45:04 28° W 16:45:04 28° W visible
30 Mar 2.4 14:45:11 10° SW 14:48:51 40° SSE 14:51:55 14° E visible
30 Mar 2.4 16:23:24 10° W 16:26:42 59° WNW 16:26:42 59° WNW visible
31 Mar 2.4 14:25:26 10° SW 14:29:08 41° SSE 14:32:48 10° ENE visible
31 Mar 2.0 16:03:42 10° W 16:07:36 74° NNW 16:08:09 61° NE visible
31 Mar 4.9 17:42:31 10° WNW 17:42:54 12° WNW 17:42:54 12° WNW visible
01 Apr 2.1 15:43:58 10° W 15:47:52 73° NNW 15:49:26 34° ENE visible
01 Apr 4.3 17:22:47 10° WNW 17:24:11 21° WNW 17:24:11 21° WNW visible
02 Apr 2.1 15:24:13 10° W 15:28:08 72° NNW 15:30:37 21° ENE visible
02 Apr 3.5 17:03:03 10° WNW 17:05:22 33° WNW 17:05:22 33° WNW visible
03 Apr 2.1 15:04:28 10° W 15:08:22 72° NNW 15:11:42 14° ENE visible
03 Apr 2.7 16:43:17 10° WNW 16:46:27 53° NW 16:46:27 53° NW visible
04 Apr 2.2 14:44:42 10° W 14:48:37 71° N 14:52:30 10° ENE visible
04 Apr 2.0 16:23:31 10° WNW 16:27:25 69° N 16:27:28 69° NNE visible
04 Apr 5.0 18:02:12 10° WNW 18:02:12 10° WNW 18:02:12 10° WNW visible
